sat.trackr.live / text

‹ back to catalog

2023-085AS

NORAD 57044 · 2023-085AS

PAYLOAD ACTIVE UNKNOWN

§ Identity

Operator
Country
PRC
Launch date
2023-06-15
Launch site
TAISC
Launch vehicle
Mass (kg)
RCS (m²)

External: N2YO · Heavens-Above · Gunter

§ Orbital elements

Epoch: 2026-09-21T21:34:19.188480Z

Period
93.54 min
Inclination
97.4992°
Eccentricity
0.0007611
Mean motion
15.39464817 rev/d
Perigee alt
442.5 km
Apogee alt
452.9 km
Semi-major
6,825.8 km
B*
3.2117e-4
RAAN
20.4188°
Arg perigee
96.1355°
Mean anomaly
264.0758°
Rev number
18,171

§ Raw data

2023-085AS1 57044U 23085AS  26264.89883320  .00012523  00000+0  32117-3 0  99982 57044  97.4992  20.4188 0007611  96.1355 264.0758 15.39464817181717

JSON: /api/v1/satellites/57044 · /tle

For live sub-satellite position, see the globe view (requires WebGL).

§ Visibility from observer

Set your observer location to see the next 7 days of passes ≥ 10°. The values pass through the URL so the page stays shareable.

No JS? Fill the form by hand. The geolocation button needs JavaScript.